When you browse on this site, cookies collect data to enhance your experience and personalize the content and advertising you see.
Visit our Privacy Policy to learn more. By continuing to use the site, you agree to this use of cookies and data.
  • In Romania
  • List of Countries
  • For 7 days
  • Water Temperature
  • Satellite Maps
  • Weather Map
  • Weather Widgets
  • user-avatar
    Login

    Hourly Weather Cleveland

    Today, 26 April, Friday

    Time Temperature Precipitation Wind Pressure Humidity
    00:00 +15°C° 2.2 mm 5 mps 734 mmHg 94%
    01:00 +16°C° 0 mm 5 mps 733 mmHg 95%
    02:00 +15°C° 1.3 mm 6 mps 732 mmHg 93%
    03:00 +15°C° 1.3 mm 7 mps 731 mmHg 92%
    04:00 +15°C° 1.3 mm 7 mps 730 mmHg 91%
    05:00 +14°C° 0.2 mm 7 mps 730 mmHg 91%
    06:00 +12°C° 0.2 mm 7 mps 729 mmHg 92%
    07:00 +11°C° 0.2 mm 7 mps 729 mmHg 92%
    08:00 +10°C° 0.3 mm 8 mps 730 mmHg 91%
    09:00 +9°C° 0.3 mm 8 mps 730 mmHg 91%
    10:00 +7°C° 0.3 mm 8 mps 730 mmHg 90%
    11:00 +7°C° 0.6 mm 8 mps 731 mmHg 88%
    12:00 +6°C° 0.6 mm 8 mps 732 mmHg 87%
    13:00 +6°C° 0.6 mm 8 mps 733 mmHg 85%
    14:00 +9°C° 0.3 mm 7 mps 734 mmHg 79%
    15:00 +10°C° 0.3 mm 7 mps 734 mmHg 74%
    16:00 +11°C° 0.3 mm 6 mps 734 mmHg 68%
    17:00 +10°C° 0.1 mm 7 mps 734 mmHg 68%
    18:00 +10°C° 0.1 mm 8 mps 735 mmHg 69%
    19:00 +8°C° 0.1 mm 9 mps 735 mmHg 69%
    20:00 +8°C° 0 mm 9 mps 736 mmHg 68%
    21:00 +7°C° 0 mm 9 mps 736 mmHg 67%
    22:00 +6°C° 0 mm 9 mps 737 mmHg 65%
    23:00 +5°C° 0 mm 9 mps 737 mmHg 66%

    Tomorrow, 27 April, Saturday

    Time Temperature Precipitation Wind Pressure Humidity
    00:00 +3°C° 0 mm 10 mps 738 mmHg 66%
    01:00 +2°C° 0 mm 10 mps 738 mmHg 67%
    02:00 +2°C° 0 mm 10 mps 739 mmHg 68%
    03:00 +1°C° 0 mm 9 mps 739 mmHg 69%
    04:00 +1°C° 0 mm 9 mps 740 mmHg 70%
    05:00 +1°C° 0 mm 8 mps 740 mmHg 70%
    06:00 +1°C° 0 mm 8 mps 741 mmHg 69%
    07:00 +2°C° 0 mm 7 mps 742 mmHg 69%
    08:00 +3°C° 0 mm 7 mps 742 mmHg 64%
    09:00 +4°C° 0 mm 6 mps 742 mmHg 60%
    10:00 +5°C° 0 mm 6 mps 742 mmHg 55%
    11:00 +6°C° 0 mm 5 mps 742 mmHg 50%
    12:00 +7°C° 0 mm 5 mps 742 mmHg 46%
    13:00 +8°C° 0 mm 5 mps 742 mmHg 41%
    14:00 +8°C° 0 mm 4 mps 742 mmHg 42%
    15:00 +8°C° 0 mm 4 mps 742 mmHg 42%
    16:00 +9°C° 0 mm 3 mps 742 mmHg 43%
    17:00 +8°C° 0.2 mm 3 mps 742 mmHg 49%
    18:00 +7°C° 0.2 mm 3 mps 742 mmHg 56%
    19:00 +5°C° 0.2 mm 3 mps 742 mmHg 63%
    20:00 +5°C° 1 mm 3 mps 741 mmHg 69%
    21:00 +4°C° 1 mm 3 mps 741 mmHg 75%
    22:00 +3°C° 1 mm 4 mps 740 mmHg 80%
    23:00 +3°C° 1.5 mm 4 mps 740 mmHg 83%

    Day after tomorrow, 28 April, Sunday

    Time Temperature Precipitation Wind Pressure Humidity
    00:00 +2°C° 1.5 mm 5 mps 739 mmHg 86%
    01:00 +2°C° 1.5 mm 5 mps 739 mmHg 89%
    02:00 +2°C° 2.6 mm 7 mps 739 mmHg 90%
    03:00 +1°C° 2.6 mm 9 mps 738 mmHg 91%
    04:00 +1°C° 2.6 mm 10 mps 738 mmHg 93%
    05:00 0°C° 0.6 mm 10 mps 740 mmHg 91%
    06:00 0°C° 0.6 mm 9 mps 741 mmHg 90%
    07:00 -1°C° 0.6 mm 8 mps 742 mmHg 88%
    08:00 0°C° 0 mm 7 mps 744 mmHg 84%
    09:00 +3°C° 0 mm 6 mps 745 mmHg 80%
    10:00 +5°C° 0 mm 5 mps 747 mmHg 77%
    11:00 +6°C° 0 mm 5 mps 748 mmHg 72%
    12:00 +6°C° 0 mm 5 mps 748 mmHg 68%
    13:00 +7°C° 0 mm 4 mps 749 mmHg 63%
    14:00 +7°C° 0 mm 4 mps 749 mmHg 62%
    15:00 +9°C° 0 mm 3 mps 749 mmHg 60%
    16:00 +9°C° 0 mm 3 mps 750 mmHg 58%
    17:00 +8°C° 0 mm 3 mps 750 mmHg 61%
    18:00 +7°C° 0 mm 3 mps 751 mmHg 63%
    19:00 +4°C° 0 mm 3 mps 751 mmHg 65%
    20:00 +4°C° 0 mm 3 mps 752 mmHg 66%
    21:00 +4°C° 0 mm 2 mps 752 mmHg 67%
    22:00 +3°C° 0 mm 2 mps 752 mmHg 68%
    23:00 +3°C° 0 mm 2 mps 753 mmHg 69%

    29 April, Monday

    Time Temperature Precipitation Wind Pressure Humidity
    00:00 +1°C° 0 mm 3 mps 753 mmHg 71%
    01:00 +1°C° 0 mm 3 mps 753 mmHg 72%
    02:00 +1°C° 0 mm 3 mps 753 mmHg 73%
    03:00 0°C° 0 mm 4 mps 752 mmHg 74%
    04:00 0°C° 0 mm 4 mps 752 mmHg 76%
    05:00 +1°C° 0 mm 5 mps 752 mmHg 71%
    06:00 +2°C° 0 mm 6 mps 751 mmHg 65%
    07:00 +3°C° 0 mm 7 mps 751 mmHg 60%
    08:00 +4°C° 0 mm 7 mps 751 mmHg 58%
    09:00 +5°C° 0 mm 6 mps 750 mmHg 56%
    10:00 +7°C° 0 mm 6 mps 750 mmHg 53%
    11:00 +8°C° 0 mm 5 mps 749 mmHg 58%
    12:00 +9°C° 0 mm 5 mps 748 mmHg 62%
    13:00 +11°C° 0 mm 4 mps 747 mmHg 66%
    14:00 +12°C° 0.6 mm 4 mps 746 mmHg 74%
    15:00 +13°C° 0.6 mm 5 mps 746 mmHg 82%
    16:00 +14°C° 0.6 mm 5 mps 745 mmHg 90%
    17:00 +13°C° 2.6 mm 5 mps 745 mmHg 92%
    18:00 +12°C° 2.6 mm 4 mps 745 mmHg 94%
    19:00 +11°C° 2.6 mm 4 mps 745 mmHg 96%
    20:00 +10°C° 0.3 mm 3 mps 745 mmHg 96%
    21:00 +10°C° 0.3 mm 2 mps 746 mmHg 96%
    22:00 +10°C° 0.3 mm 2 mps 746 mmHg 96%
    23:00 +9°C° 0.1 mm 2 mps 746 mmHg 96%

    30 April, Tuesday

    Time Temperature Precipitation Wind Pressure Humidity
    00:00 +9°C° 0.1 mm 2 mps 747 mmHg 96%
    01:00 +8°C° 0.1 mm 2 mps 747 mmHg 95%
    02:00 +8°C° 0 mm 2 mps 747 mmHg 95%
    03:00 +8°C° 0 mm 2 mps 747 mmHg 95%
    04:00 +8°C° 0 mm 2 mps 748 mmHg 95%
    05:00 +8°C° 0 mm 2 mps 748 mmHg 94%
    06:00 +8°C° 0 mm 2 mps 749 mmHg 94%
    07:00 +8°C° 0 mm 2 mps 749 mmHg 93%
    08:00 +8°C° 0.1 mm 3 mps 749 mmHg 92%
    09:00 +9°C° 0.1 mm 3 mps 749 mmHg 92%
    10:00 +9°C° 0.1 mm 3 mps 750 mmHg 91%
    11:00 +10°C° 0.4 mm 3 mps 750 mmHg 91%
    12:00 +11°C° 0.4 mm 3 mps 750 mmHg 91%
    13:00 +11°C° 0.4 mm 3 mps 750 mmHg 90%
    14:00 +11°C° 0.5 mm 4 mps 749 mmHg 91%
    15:00 +11°C° 0.5 mm 4 mps 749 mmHg 93%
    16:00 +11°C° 0.5 mm 4 mps 749 mmHg 94%
    17:00 +10°C° 0.6 mm 5 mps 749 mmHg 94%
    18:00 +10°C° 0.6 mm 5 mps 749 mmHg 95%
    19:00 +10°C° 0.6 mm 5 mps 749 mmHg 96%
    20:00 +10°C° 0.6 mm 5 mps 749 mmHg 96%
    21:00 +10°C° 0.6 mm 5 mps 748 mmHg 97%
    22:00 +10°C° 0.6 mm 5 mps 748 mmHg 97%
    23:00 +12°C° 0.6 mm 5 mps 748 mmHg 97%

    1 May, Wednesday

    Time Temperature Precipitation Wind Pressure Humidity
    00:00 +13°C° 0.6 mm 4 mps 747 mmHg 98%
    01:00 +14°C° 0.6 mm 4 mps 746 mmHg 98%
    02:00 +15°C° 0.2 mm 4 mps 746 mmHg 97%
    03:00 +15°C° 0.2 mm 4 mps 745 mmHg 96%
    04:00 +17°C° 0.2 mm 4 mps 744 mmHg 96%
    05:00 +16°C° 1.3 mm 5 mps 744 mmHg 95%
    06:00 +17°C° 1.3 mm 6 mps 743 mmHg 95%
    07:00 +17°C° 1.3 mm 7 mps 742 mmHg 94%
    08:00 +18°C° 1.4 mm 9 mps 742 mmHg 92%
    09:00 +19°C° 1.4 mm 10 mps 742 mmHg 91%
    10:00 +19°C° 1.4 mm 11 mps 742 mmHg 89%
    11:00 +19°C° 1.4 mm 10 mps 742 mmHg 90%
    12:00 +20°C° 1.4 mm 8 mps 743 mmHg 91%
    13:00 +18°C° 1.4 mm 7 mps 744 mmHg 92%
    14:00 +17°C° 0.5 mm 5 mps 744 mmHg 92%
    15:00 +15°C° 0.5 mm 4 mps 745 mmHg 93%
    16:00 +13°C° 0.5 mm 3 mps 745 mmHg 93%
    17:00 +12°C° 0 mm 4 mps 746 mmHg 93%
    18:00 +12°C° 0 mm 4 mps 746 mmHg 92%
    19:00 +10°C° 0 mm 5 mps 747 mmHg 92%
    20:00 +9°C° 0 mm 5 mps 748 mmHg 92%
    21:00 +8°C° 0 mm 5 mps 748 mmHg 92%
    22:00 +7°C° 0 mm 6 mps 749 mmHg 91%
    23:00 +5°C° 0 mm 6 mps 749 mmHg 91%
    Show more